Location: Newark
(59.4564°N, 26.6917°E)
Time: 03:18:55
(UTC+00:00)

SR - Pass Details

Date: 27 November 2019
Orbit: 573 x 882 km, 66.7° (Epoch: 11 December)

Event Time Altitude Azimuth Distance (km) Brightness Sun altitude
Rises 14:02:49 0° 261° (W) 3,364 ? -4.4°
Reaches altitude 10° 14:05:18 10° 267° (W) 2,467 ? -4.7°
Maximum altitude 14:10:53 49° 342° (NNW) 1,124 ? -5.3°
Drops below altitude 10° 14:16:40 10° 57° (ENE) 2,553 ? -5.9°
Enters shadow 14:17:23 - 59° (ENE) 2,805 ? -6.0°
Sets 14:19:17 0° 63° (ENE) 3,490 - -6.2°
